Le nostre stazioni meteo in Italia

Pubblicità
Il mio iltempo24.it
Lentran, Gran Bretagna (99125): Temperatura & dewpoint: 14.08.2017 04:00:00 - 20.08.2017 04:00:00 (BST)Lentran, Gran Bretagna (99125): velocità del vento: 14.08.2017 04:00:00 - 20.08.2017 04:00:00 (BST)Lentran, Gran Bretagna (99125): direzione del vento: 14.08.2017 04:00:00 - 20.08.2017 04:00:00 (BST)Lentran, Gran Bretagna (99125): visibility: 14.08.2017 04:00:00 - 20.08.2017 04:00:00 (BST)Lentran, Gran Bretagna (99125): precipitazioni: 14.08.2017 04:00:00 - 20.08.2017 04:00:00 (BST)
Data & Tempo tt [°C] td [°C] ff [km/h] ff [kn] dd vv [km] rr [mm]
20.08.2017 04:00:00 11,9 8,4 - - - - 0,0
20.08.2017 03:00:00 11,7 8,9 - - - - 0,0
20.08.2017 02:00:00 11,4 9,3 - - - - 0,0
20.08.2017 01:00:00 11,7 9,5 - - - - 0,0
20.08.2017 00:00:00 11,6 9,3 - - - - 0,0
19.08.2017 23:00:00 11,9 9,6 - - - - 0,0
19.08.2017 22:00:00 12,3 9,8 - - - - 0,0
19.08.2017 21:00:00 12,6 10,1 - - - - 0,0
19.08.2017 20:00:00 13,6 10,4 - - - - 0,0
19.08.2017 19:00:00 15,1 10,2 - - - - 0,0
19.08.2017 18:00:00 15,1 11,2 - - - - 0,0
19.08.2017 17:00:00 16,3 11,4 - - - - 0,0
19.08.2017 16:00:00 15,9 11,3 - - - - 0,0
19.08.2017 15:00:00 16,2 10,6 - - - - 0,0
19.08.2017 14:00:00 14,3 12,4 - - - - 0,2
19.08.2017 13:00:00 14,5 12,5 - - - - 0,8
19.08.2017 12:00:00 14,6 10,7 - - - - 0,0
19.08.2017 11:00:00 13,9 10,9 - - - - 0,0
19.08.2017 10:00:00 13,9 10,9 - - - - 0,0
19.08.2017 09:00:00 12,6 9,6 - - - - 0,0
19.08.2017 08:00:00 11,9 9,4 - - - - 0,0
19.08.2017 07:00:00 11,3 8,8 - - - - 0,0
19.08.2017 06:00:00 11,0 8,4 - - - - 0,0
19.08.2017 05:00:00 10,8 8,3 - - - - 0,0
19.08.2017 04:00:00 11,0 8,9 - - - - 0,0
19.08.2017 03:00:00 10,6 9,2 - - - - 0,0
19.08.2017 02:00:00 11,0 10,1 - - - - 0,2
19.08.2017 01:00:00 11,6 10,3 - - - - 0,2
19.08.2017 00:00:00 11,7 10,7 - - - - 0,0
18.08.2017 23:00:00 11,8 10,8 - - - - 0,2
18.08.2017 22:00:00 12,3 10,1 - - - - 0,0
18.08.2017 21:00:00 12,8 9,6 - - - - 0,0
18.08.2017 20:00:00 13,4 9,4 - - - - 0,0
18.08.2017 19:00:00 13,1 9,5 - - - - 0,0
18.08.2017 18:00:00 13,4 9,1 - - - - 0,0
18.08.2017 17:00:00 13,5 9,4 - - - - 0,0
18.08.2017 16:00:00 13,3 9,2 - - - - 0,0
18.08.2017 15:00:00 13,1 9,2 - - - - 0,0
18.08.2017 14:00:00 13,9 9,7 - - - - 0,0
18.08.2017 13:00:00 13,6 9,6 - - - - 0,0
18.08.2017 12:00:00 12,1 9,7 - - - - 0,0
18.08.2017 11:00:00 11,5 9,9 - - - - 0,0
18.08.2017 10:00:00 11,3 10,1 - - - - 0,0
18.08.2017 09:00:00 11,5 11,1 - - - - 0,0
18.08.2017 08:00:00 11,0 10,6 - - - - 0,0
18.08.2017 07:00:00 10,4 10,0 - - - - 0,6
18.08.2017 06:00:00 10,1 9,6 - - - - 0,0
18.08.2017 05:00:00 9,9 9,3 - - - - 0,0
18.08.2017 04:00:00 9,9 9,1 - - - - 0,0
18.08.2017 03:00:00 10,5 9,7 - - - - 0,0
18.08.2017 02:00:00 10,2 9,4 - - - - 0,0
18.08.2017 01:00:00 9,8 8,9 - - - - 0,0
18.08.2017 00:00:00 10,5 8,6 - - - - 0,0
17.08.2017 23:00:00 12,0 8,8 - - - - 0,0
17.08.2017 22:00:00 11,4 8,6 - - - - 0,0
17.08.2017 21:00:00 13,4 9,2 - - - - 0,0
17.08.2017 20:00:00 15,3 9,8 - - - - 0,0
17.08.2017 19:00:00 15,5 9,9 - - - - 0,0
17.08.2017 18:00:00 16,9 10,8 - - - - 0,0
17.08.2017 17:00:00 16,0 11,4 - - - - 0,0
17.08.2017 16:00:00 16,8 10,4 - - - - 0,0
17.08.2017 15:00:00 18,8 11,5 - - - - 0,0
17.08.2017 14:00:00 17,7 11,5 - - - - 0,0
17.08.2017 13:00:00 16,1 11,4 - - - - 0,0
17.08.2017 12:00:00 16,4 11,7 - - - - 0,0
17.08.2017 11:00:00 15,7 11,5 - - - - 0,0
17.08.2017 10:00:00 15,2 11,6 - - - 10 0,0
17.08.2017 09:00:00 14,8 10,9 - - - - 0,0
17.08.2017 08:00:00 13,5 10,9 - - - - 0,0
17.08.2017 07:00:00 12,1 10,3 - - - - 0,0
17.08.2017 06:00:00 11,8 10,0 - - - - 0,0
17.08.2017 05:00:00 11,9 10,2 - - - - 0,0
17.08.2017 04:00:00 11,2 10,2 - - - - 0,0
17.08.2017 03:00:00 11,7 10,2 - - - - 0,0
17.08.2017 02:00:00 12,4 11,2 - - - - 0,0
17.08.2017 01:00:00 13,8 12,7 - - - - 0,4
17.08.2017 00:00:00 14,5 14,2 - - - - 4,4
16.08.2017 23:00:00 14,5 13,7 - - - - 0,8
16.08.2017 22:00:00 14,7 13,5 - - - - 0,0
16.08.2017 21:00:00 14,6 12,9 - - - - 0,0
16.08.2017 20:00:00 14,5 12,8 - - - - 0,4
16.08.2017 19:00:00 16,0 12,1 - - - - 0,0
16.08.2017 18:00:00 17,2 11,2 - - - - 0,0
16.08.2017 17:00:00 18,4 11,0 - - - - 0,0
16.08.2017 16:00:00 17,9 11,3 - - - - 0,0
16.08.2017 15:00:00 16,6 11,1 - - - - 0,0
16.08.2017 14:00:00 15,7 10,1 - - - - 0,0
16.08.2017 13:00:00 15,9 9,4 - - - - 0,0
16.08.2017 12:00:00 15,3 9,9 - - - - 0,0
16.08.2017 11:00:00 16,0 10,2 - - - - 0,0
16.08.2017 10:00:00 15,9 10,3 172 93 N 20 0,0
16.08.2017 09:00:00 13,8 10,1 - - - - 0,0
16.08.2017 08:00:00 11,4 10,5 - - - - 0,0
16.08.2017 07:00:00 10,7 9,1 - - - - 0,0
16.08.2017 06:00:00 10,4 8,8 - - - - 0,0
16.08.2017 05:00:00 10,1 8,3 - - - - 0,0
16.08.2017 04:00:00 10,3 8,4 - - - - 0,0
16.08.2017 03:00:00 10,6 8,9 - - - - 0,0
16.08.2017 02:00:00 10,5 8,8 - - - - 0,0
16.08.2017 01:00:00 11,3 9,6 - - - - 0,0
16.08.2017 00:00:00 9,9 8,4 - - - - 0,0
15.08.2017 23:00:00 10,6 8,4 - - - - 0,0
15.08.2017 22:00:00 10,9 8,5 - - - - 0,0
15.08.2017 21:00:00 12,4 8,7 - - - - 0,0
15.08.2017 20:00:00 13,4 10,2 - - - - 0,0
15.08.2017 19:00:00 15,8 9,1 - - - - 0,0
15.08.2017 18:00:00 15,6 11,0 - - - - 0,0
15.08.2017 17:00:00 16,2 10,7 - - - - 0,0
15.08.2017 16:00:00 15,5 11,3 - - - - 0,0
15.08.2017 15:00:00 16,2 13,1 - - - - 0,4
15.08.2017 14:00:00 13,7 11,3 - - - - 1,8
15.08.2017 13:00:00 16,4 8,7 - - - - 0,0
15.08.2017 12:00:00 16,9 10,5 - - - - 0,0
15.08.2017 11:00:00 14,2 11,6 - - - - 0,0
15.08.2017 10:00:00 14,9 11,3 - - - 10 0,0
15.08.2017 09:00:00 12,7 10,5 - - - - 0,0
15.08.2017 08:00:00 11,5 10,5 - - - - 0,0
15.08.2017 07:00:00 10,3 9,7 - - - - 0,0
15.08.2017 06:00:00 10,7 10,1 - - - - 0,0
15.08.2017 05:00:00 10,9 10,7 - - - - 0,0
15.08.2017 04:00:00 11,2 10,8 - - - - 0,0
15.08.2017 03:00:00 11,7 11,4 - - - - 0,0
15.08.2017 02:00:00 11,9 11,6 - - - - 0,0
15.08.2017 01:00:00 12,5 11,9 - - - - 0,0
15.08.2017 00:00:00 13,1 12,1 - - - - 0,0
14.08.2017 23:00:00 13,5 12,4 - - - - 0,0
14.08.2017 22:00:00 14,2 12,6 - - - 10 0,0
14.08.2017 21:00:00 14,8 13,3 - - - - 0,2
14.08.2017 20:00:00 15,0 13,7 - - - - 0,0
14.08.2017 19:00:00 15,8 14,8 - - - - 1,0
14.08.2017 18:00:00 15,7 13,8 - - - - 0,0
14.08.2017 17:00:00 15,4 14,4 - - - - 0,0
14.08.2017 16:00:00 15,0 14,0 - - - - 0,0
14.08.2017 15:00:00 13,6 13,4 - - - - 0,0
14.08.2017 14:00:00 12,7 12,5 - - - - 1,4
14.08.2017 13:00:00 12,0 11,9 - - - - 2,8
14.08.2017 12:00:00 12,0 11,7 - - - - 0,6
14.08.2017 11:00:00 11,4 11,1 - - - - 1,0
14.08.2017 10:00:00 10,2 10,1 172 93 N 17 1,2
14.08.2017 09:00:00 9,6 9,5 - - - - 0,8
14.08.2017 08:00:00 9,3 9,2 - - - - 0,8
14.08.2017 07:00:00 8,6 8,1 - - - - 0,0
14.08.2017 06:00:00 8,4 7,7 - - - - 0,0
14.08.2017 05:00:00 8,8 7,9 - - - - 0,0
14.08.2017 04:00:00 8,7 7,7 - - - - 0,0

tt = Temperatura
td = dewpoint
ff = velocità del vento
dd = direzione del vento
vv = visibility
rr = precipitazioni

Stazioni seguenti

WeatherPro
AMSI
MeteoEarth